Location: ????????
(60.4333°N, 46.4710°E)
Time: 19:55:51
(UTC+00:00)

Feng Yun 1-1 Rocket - Pass Details

Date: 25 November 2020
Orbit: 829 x 933 km, 99.2° (Epoch: 16 January)

Event Time Altitude Azimuth Distance (km) Brightness Sun altitude
Rises 13:44:45 0° 141° (SE) 3,533 7.3 -11.4°
Reaches altitude 10° 13:47:12 10° 138° (SE) 2,581 6.5 -11.7°
Maximum altitude 13:52:49 57° 61° (ENE) 1,038 4.3 -12.3°
Drops below altitude 10° 13:58:18 10° 344° (NNW) 2,526 6.6 -13.0°
Sets 14:00:41 0° 341° (NNW) 3,452 7.4 -13.2°
